Location: Unspecified
(0.0000°N, 0.0000°E)
Time: 08:31:53
(UTC+00:00)

XW-2C - Pass Details

Date: 26 May 2021
Orbit: 506 x 525 km, 97.5° (Epoch: 17 June)

Event Time Altitude Azimuth Distance (km) Brightness Sun altitude
Rises 05:00:24 0° 32° (NNE) 2,620 ? -13.2°
Reaches altitude 10° 05:02:47 10° 46° (NE) 1,733 ? -12.6°
Maximum altitude 05:05:50 24° 101° (E) 1,094 ? -11.9°
Drops below altitude 10° 05:08:53 10° 156° (SSE) 1,731 ? -11.2°
Sets 05:11:14 0° 170° (S) 2,616 ? -10.7°
